Location: Paris
(48.8567°N, 2.3515°E)
Time: 02:14:41
(UTC+01:00)

ISS - Pass Details

Date: 24 July 2020
Orbit: 418 x 421 km, 51.6° (Epoch: 29 November)

Event Time Altitude Azimuth Distance (km) Brightness Sun altitude
Rises 23:26:49 0° 287° (WNW) 2,386 1.0 -13.8°
Reaches altitude 10° 23:28:56 10° 291° (WNW) 1,521 0.0 -14.0°
Maximum altitude 23:32:20 66° 14° (NNE) 471 -3.4 -14.3°
Enters shadow 23:34:45 18° 94° (E) 1,132 -1.9 -14.5°
